Location: Byszew
(52.1813°N, 19.2693°E)
Time: 13:34:44
(UTC+00:00)

Cosmos 2278 - Pass Details

Date: 03 March 2021
Orbit: 838 x 854 km, 71.1° (Epoch: 10 April)

Event Time Altitude Azimuth Distance (km) Brightness Sun altitude
Rises 16:49:47 0° 215° (SW) 3,394 7.5 -4.4°
Reaches altitude 10° 16:52:14 10° 217° (SW) 2,465 6.8 -4.8°
Maximum altitude 16:57:54 75° 303° (WNW) 884 4.0 -5.6°
Drops below altitude 10° 17:03:38 10° 29° (NNE) 2,491 5.9 -6.5°
Sets 17:06:06 0° 31° (NNE) 3,432 6.5 -6.9°
